Temperature
19 19 19 19 19 19 19 18 18 18 18 18 18 18 17 17 17 17 17 17 16 16 16 16 16 16 17 17 17 17 17 17 17 17 16 16 15 15 15 15 15 15 15
19 19 18 18 18 18 18 18 18 18 18 18 18 18 17 17 17 17 17 16 16 16 16 16 16 16 16 16 16 16 16 16 16 16 16 16 15 15 15 15 15 15 15
18 18 18 18 18 18 18 18 18 18 18 18 17 17 17 17 17 17 16 16 16 16 16 16 16 16 16 16 16 16 16 16 16 16 16 16 15 15 15 14 15 14 14
18 18 18 18 18 18 18 18 18 18 18 17 17 17 17 17 17 16 16 16 16 16 16 15 15 15 15 15 15 15 15 15 15 15 15 15 15 14 14 14 14 14 14
18 18 18 18 18 18 18 17 17 17 17 17 17 17 16 16 16 16 16 16 16 16 15 15 15 15 16 15 15 15 15 15 15 15 15 15 15 14 14 14 14 14 14
18 18 17 18 17 17 17 17 17 17 17 17 17 16 16 16 16 16 16 16 16 15 15 15 15 15 15 15 15 15 15 15 15 15 15 14 14 14 13 13 14 14 14
18 18 17 17 17 17 17 17 17 17 16 16 16 16 16 16 16 16 16 16 15 15 15 15 15 15 15 15 15 15 15 14 14 14 14 14 14 13 13 13 13 13 13
17 17 17 17 17 17 17 17 17 16 16 16 16 16 16 16 16 16 16 16 15 15 15 15 15 15 15 15 14 14 14 14 14 14 13 13 13 13 13 13 12 12 12
17 17 17 17 16 16 16 16 16 16 16 16 16 16 16 16 16 16 16 15 15 15 15 15 15 15 15 14 14 14 14 14 14 14 13 13 13 13 12 12 12 12 13
17 16 16 16 16 16 16 16 16 16 15 15 15 15 15 15 15 15 15 15 14 14 14 14 15 14 14 14 14 13 13 13 13 13 13 13 12 12 12 12 12 12 12
16 16 16 16 16 16 16 15 15 15 15 15 15 15 15 15 15 15 15 14 14 14 14 14 14 14 14 14 13 13 13 13 13 12 12 12 12 12 12 12 12 11 12
16 16 16 15 15 15 15 15 15 15 15 14 14 14 14 14 14 14 14 14 14 14 14 14 13 14 13 13 13 13 13 13 12 12 12 12 12 12 12 11 11 11 11
16 15 15 15 15 15 15 15 14 14 14 14 14 14 14 14 14 14 14 14 14 13 13 13 13 13 13 13 13 13 12 12 12 12 12 12 12 11 11 11 11 11 11
15 15 15 15 15 15 14 14 14 14 14 14 14 14 14 14 13 13 13 13 13 13 13 13 13 13 13 12 12 12 12 12 12 12 12 11 11 11 11 11 11 11 11
15 15 15 15 15 14 14 14 14 14 14 14 14 14 13 13 13 13 13 13 13 12 12 12 12 12 12 12 12 11 11 11 11 11 11 11 11 10 10 10 10 10 10
15 15 15 14 14 14 14 14 14 13 13 13 13 13 13 13 13 13 13 12 12 12 12 12 12 12 12 12 12 11 11 11 11 11 11 10 10 10 10 10 10 10 10
15 14 14 14 14 14 14 14 14 13 13 13 13 13 13 12 12 12 12 12 12 12 12 12 12 12 11 12 12 11 11 11 11 10 10 10 10 10 10 10 10 10 10
14 14 14 14 14 14 13 13 13 13 13 13 12 12 12 12 12 12 12 11 11 11 11 11 11 11 11 11 11 11 11 11 10 10 10 10 10 10 10 10 10 9 9
14 13 13 13 13 13 13 13 13 13 13 13 12 12 12 12 11 11 11 11 11 11 11 11 11 11 11 11 11 10 10 10 10 10 10 9 9 9 9 9 9 9 9
13 13 13 13 13 13 13 13 13 13 12 12 12 12 11 11 11 11 11 11 11 11 11 11 11 10 10 10 10 10 10 10 9 9 9 9 9 9 9 9 9 9 9
13 13 12 13 12 12 12 12 12 12 12 12 12 11 11 11 11 11 11 10 10 10 10 10 10 10 10 9 9 9 9 9 9 9 9 9 9 9 9 9 9 9 9
12 12 12 12 12 12 12 12 12 12 11 11 11 11 11 10 11 11 10 10 10 10 10 10 9 9 9 9 9 9 9 9 9 8 8 8 8 8 8 8 8 8 8
12 12 12 12 12 12 12 12 11 11 11 11 11 11 11 10 10 10 10 10 10 9 9 9 9 9 9 9 8 8 8 8 8 8 8 8 8 8 8 8 8 8 8
12 12 12 12 12 12 11 11 11 11 11 11 11 10 10 10 10 10 10 10 9 9 9 9 9 9 8 8 8 8 8 8 8 8 8 8 8 8 8 7 7 7 8
12 12 12 11 11 11 11 11 11 11 10 10 10 10 10 10 10 9 9 9 9 9 9 9 9 8 8 8 8 8 8 8 8 8 7 8 8 7 7 7 7 7 7
11 11 11 11 11 11 10 10 10 10 10 10 10 10 10 10 9 9 9 9 9 9 9 9 8 8 8 8 8 8 8 8 8 7 7 7 7 7 7 7 7 7 7
Wind_Speed
5 6 5 6 6 7 6 6 6 6 6 6 6 6 6 6 5 6 6 5 6 6 6 5 6 5 5 4 4 5 5 5 5 3 2 1 3 3 2 3 4 4 4
5 5 6 5 6 7 7 7 7 6 6 6 6 5 6 5 5 6 6 6 6 6 5 5 6 5 5 5 4 5 4 4 5 5 4 3 4 4 3 4 4 4 4
4 5 5 6 6 7 7 7 7 6 6 5 5 6 5 5 6 6 5 5 5 5 5 5 5 5 5 4 5 5 5 5 5 5 5 3 4 3 3 4 4 3 5
4 5 5 5 6 6 6 6 6 6 6 6 5 6 6 5 6 6 6 5 5 5 5 5 5 5 5 5 5 4 4 4 4 5 4 4 3 3 3 3 3 3 3
3 4 4 4 5 5 6 6 6 6 6 6 5 6 6 5 5 5 6 6 5 5 4 5 4 3 2 3 4 4 4 4 4 5 4 4 3 2 3 4 3 3 2
3 3 2 3 4 4 4 5 5 5 5 5 6 6 6 5 2 3 6 6 5 5 5 5 5 4 3 3 2 3 3 5 5 5 5 4 3 3 2 3 3 3 3
3 2 2 3 3 4 4 4 5 5 5 6 7 7 6 5 4 4 5 6 6 5 5 5 4 3 3 4 4 6 4 4 4 6 5 4 3 2 3 4 3 4 4
3 3 3 3 3 3 4 4 5 5 5 5 6 6 6 5 5 5 6 7 6 5 5 5 4 3 3 3 4 4 5 4 5 5 4 4 3 2 3 5 4 4 4
3 3 3 3 3 3 3 4 4 4 5 5 5 5 6 5 5 6 6 6 5 6 5 5 5 4 2 3 5 5 5 4 4 4 2 2 1 2 3 4 4 4 4
3 3 3 3 3 3 3 4 4 4 4 5 4 5 5 5 6 7 7 6 5 5 5 5 5 4 4 4 6 5 6 5 4 4 5 6 5 6 7 5 5 5 4
2 2 3 3 3 3 3 3 3 3 3 4 4 4 5 5 6 8 8 6 5 5 5 5 4 5 5 6 6 6 5 5 5 5 4 4 4 4 4 4 3 5 5
2 2 2 3 3 3 2 2 3 3 4 4 4 5 4 4 4 5 7 7 6 6 5 4 3 5 6 6 5 4 4 6 5 4 4 4 4 3 2 2 2 3 4
2 2 2 2 2 2 3 3 3 3 3 4 4 4 3 3 3 5 7 7 7 6 4 1 3 6 7 6 6 6 6 5 4 4 4 4 3 3 2 2 3 3 3
3 3 2 2 3 2 3 3 3 3 3 4 3 3 3 3 2 3 4 4 5 6 5 3 7 8 7 4 5 6 6 4 5 5 4 3 3 3 4 3 3 3 3
3 3 3 3 2 2 2 2 3 1 2 3 3 3 3 4 3 3 4 4 5 5 4 4 4 4 4 4 4 4 5 5 5 5 4 4 3 4 4 4 3 4 4
3 3 3 2 2 3 2 2 2 0 2 1 2 3 1 1 2 2 3 4 3 3 5 5 5 5 5 5 5 5 5 5 5 5 4 4 4 4 4 3 3 4 4
3 3 3 3 3 3 3 3 3 2 3 3 2 1 1 1 0 1 2 2 3 5 5 5 5 5 5 5 4 4 4 4 4 5 5 5 5 4 4 4 4 4 4
3 2 3 3 3 3 3 3 3 3 3 2 2 3 3 3 3 2 2 2 2 4 5 4 4 5 5 5 4 4 4 4 4 4 4 4 4 5 5 5 5 5 4
3 2 2 3 3 3 3 3 3 4 4 3 2 2 3 4 5 4 4 4 4 4 5 4 4 4 4 4 4 4 4 4 4 4 4 4 4 5 5 5 4 4 5
2 0 2 3 3 3 3 3 3 3 3 3 3 3 1 2 2 2 3 4 4 4 3 3 3 3 3 3 3 4 4 4 4 4 4 4 4 5 5 5 5 5 5
1 2 3 3 3 3 3 3 3 3 3 3 3 1 2 3 3 3 3 3 4 4 3 3 3 3 3 3 3 4 5 4 3 4 4 4 4 5 5 5 5 5 5
2 2 2 2 2 2 3 3 3 3 3 4 3 2 4 4 3 2 3 3 3 3 3 3 3 3 3 3 3 4 5 4 4 4 5 5 5 5 5 5 5 4 4
2 2 2 2 2 3 3 3 3 3 3 3 3 2 2 3 3 3 2 3 2 2 2 3 3 3 2 3 3 4 4 4 4 5 5 6 5 5 5 5 5 5 5
3 3 2 2 2 2 2 3 3 3 3 3 3 3 3 3 3 2 3 3 3 3 3 3 3 4 4 4 4 4 3 3 5 5 6 6 6 5 5 5 5 6 6
3 2 2 2 2 3 3 3 3 3 3 3 3 3 3 3 3 3 3 3 3 3 4 4 3 3 3 4 4 4 1 1 4 5 5 6 6 6 6 6 5 6 6
2 2 2 2 3 3 3 3 3 3 3 3 3 3 3 3 3 3 3 3 3 3 4 3 3 3 4 4 4 2 1 2 4 5 6 6 6 6 6 6 6 7 7
Wind_Direction
202 206 208 207 208 211 216 219 219 222 220 222 223 224 225 224 223 229 240 237 243 250 254 250 253 266 265 261 252 249 245 249 257 267 279 232 222 252 243 240 237 235 210
199 203 206 208 211 213 214 217 219 222 225 223 224 225 228 227 228 232 240 241 241 244 249 250 254 253 254 264 264 256 254 249 251 255 252 243 230 228 239 248 248 250 258
189 201 205 210 213 218 222 220 219 219 224 226 219 220 225 227 228 231 237 240 241 243 244 246 253 256 256 257 260 256 253 247 242 243 242 236 239 230 233 241 248 255 261
192 200 205 217 221 222 223 222 222 221 220 220 220 224 226 227 228 231 230 233 237 239 242 246 250 249 252 256 250 250 254 256 243 241 238 235 229 227 238 247 248 239 260
197 209 213 222 226 227 225 223 222 222 222 219 220 226 227 228 231 231 230 225 230 235 237 241 236 233 259 269 270 254 245 245 243 242 239 245 236 229 240 248 254 259 249
199 213 216 222 224 225 223 219 220 222 224 221 222 224 228 235 215 240 248 233 230 233 236 239 229 215 206 205 256 286 280 250 251 253 242 241 244 245 254 256 262 268 273
194 204 214 223 230 228 220 213 216 220 222 221 223 223 226 225 195 214 238 237 233 233 234 239 245 221 216 230 209 211 228 230 243 258 257 250 246 239 249 253 264 283 292
195 204 219 226 228 232 232 223 220 218 223 226 225 224 224 215 193 210 230 231 237 232 230 229 234 233 239 238 235 233 236 228 222 233 252 249 244 245 250 257 261 256 248
202 214 222 222 224 232 238 234 232 228 228 232 231 227 225 217 199 210 224 229 226 229 228 223 226 226 198 227 232 234 239 239 201 178 186 201 195 203 243 255 258 259 264
209 220 227 230 229 232 238 240 240 238 240 244 239 235 228 224 195 202 223 230 229 226 220 217 207 220 202 216 229 235 240 242 235 201 191 199 206 201 207 238 259 263 270
207 216 219 222 229 233 241 245 250 248 248 252 251 247 238 230 197 195 216 230 230 229 225 225 206 175 198 217 236 239 244 251 240 225 215 209 207 213 217 222 255 272 273
200 210 218 221 229 214 220 233 237 243 240 242 245 254 246 228 218 201 206 228 254 238 239 235 204 176 198 213 224 232 236 237 236 228 225 220 215 220 221 238 249 272 289
209 217 223 231 234 232 226 227 231 232 246 253 253 259 257 241 208 199 206 219 239 247 249 225 184 194 208 212 209 212 222 231 231 231 229 230 231 226 227 232 234 233 248
208 215 212 218 223 219 239 236 238 246 252 259 259 264 266 258 248 230 223 217 219 235 241 205 188 201 217 217 202 207 219 228 237 238 238 236 234 228 231 239 243 238 248
218 225 220 221 218 224 231 259 253 257 279 273 273 269 267 265 281 295 259 241 238 234 230 229 224 213 220 219 222 224 221 215 222 233 230 225 225 227 234 238 246 240 243
215 230 232 229 231 242 236 222 50 28 116 110 336 307 292 314 314 296 278 271 254 214 219 231 230 229 232 229 224 224 222 221 224 229 227 226 226 228 231 239 239 242 246
230 237 243 243 236 239 241 244 238 203 169 166 163 180 251 249 255 266 263 242 207 189 219 236 239 240 240 240 236 236 234 226 224 230 230 227 226 227 229 234 239 238 246
241 232 243 245 250 247 248 252 257 254 238 233 193 174 194 206 202 205 203 197 212 217 245 249 248 243 242 244 241 241 240 231 220 225 228 228 229 232 233 236 233 235 242
241 248 257 261 258 257 253 254 257 260 263 265 265 213 191 202 191 185 187 237 248 242 245 247 254 258 253 245 243 239 239 238 230 226 227 227 233 239 239 241 241 228 241
232 287 274 262 259 253 254 258 261 261 265 267 266 277 242 230 249 223 219 246 256 257 258 261 265 268 266 263 250 243 240 235 228 224 226 230 236 239 239 240 241 239 241
232 208 224 247 255 262 262 262 262 265 266 266 270 267 263 251 254 256 246 243 251 254 260 264 263 258 254 254 252 246 242 240 233 235 233 233 234 234 236 239 241 243 245
218 231 237 248 247 252 263 263 258 258 260 262 262 213 199 244 254 255 262 260 258 255 262 262 255 257 260 256 251 244 242 242 238 234 235 237 237 237 237 237 240 244 246
233 231 231 234 239 227 239 252 257 256 258 262 266 262 244 254 257 254 254 269 274 269 261 250 252 253 256 258 254 249 250 255 251 244 239 241 239 237 235 232 237 245 246
243 237 239 237 238 248 251 256 255 253 252 254 258 259 253 256 262 265 270 270 277 281 271 258 253 252 250 249 244 241 250 266 268 256 247 244 243 239 233 231 237 241 244
246 244 242 244 248 249 255 258 258 257 255 255 258 260 260 263 263 262 266 274 281 282 278 269 263 259 260 259 257 259 254 250 266 265 245 238 238 238 237 236 240 244 240
261 259 259 255 255 257 256 253 255 258 257 256 253 248 251 261 272 277 277 281 281 276 277 276 277 275 270 263 262 255 174 200 238 255 250 239 235 232 236 240 244 245 241
Height
1516 1517 1518 1519 1521 1522 1523 1524 1525 1526 1526 1526 1527 1527 1527 1527 1528 1528 1529 1529 1529 1529 1529 1529 1529 1529 1529 1529 1529 1529 1529 1529 1529 1529 1528 1528 1526 1526 1526 1526 1526 1525 1525
1514 1514 1515 1516 1518 1519 1520 1521 1522 1522 1523 1524 1524 1524 1525 1525 1525 1525 1526 1526 1526 1526 1526 1526 1526 1526 1525 1526 1526 1526 1526 1525 1526 1525 1525 1525 1523 1523 1523 1522 1523 1523 1523
1512 1512 1513 1514 1515 1516 1517 1518 1519 1519 1520 1521 1521 1521 1522 1522 1522 1522 1522 1522 1522 1522 1522 1522 1522 1522 1522 1523 1522 1522 1523 1522 1522 1522 1521 1521 1521 1520 1520 1520 1520 1519 1520
1510 1510 1511 1511 1512 1513 1514 1515 1515 1516 1517 1517 1518 1518 1518 1519 1519 1519 1519 1519 1519 1519 1519 1519 1519 1519 1519 1519 1519 1518 1519 1519 1519 1519 1518 1518 1518 1517 1517 1517 1517 1517 1517
1507 1508 1508 1509 1510 1510 1511 1511 1512 1513 1513 1514 1514 1515 1515 1516 1516 1516 1516 1516 1516 1515 1515 1515 1515 1515 1515 1515 1516 1515 1515 1515 1516 1515 1515 1515 1515 1515 1515 1515 1515 1514 1514
1505 1506 1506 1506 1507 1507 1507 1508 1508 1509 1510 1510 1510 1511 1511 1512 1512 1512 1512 1513 1512 1512 1512 1511 1511 1511 1511 1511 1511 1512 1512 1512 1512 1512 1512 1512 1512 1512 1512 1512 1512 1512 1512
1503 1503 1503 1503 1504 1504 1504 1504 1505 1505 1506 1506 1507 1507 1507 1507 1508 1508 1509 1509 1508 1508 1508 1508 1509 1508 1508 1508 1508 1508 1508 1508 1508 1508 1509 1508 1509 1509 1509 1509 1509 1509 1509
1500 1500 1501 1501 1501 1501 1501 1501 1501 1502 1502 1502 1503 1503 1503 1503 1504 1504 1504 1505 1504 1504 1504 1504 1504 1504 1505 1504 1504 1504 1504 1504 1504 1504 1504 1505 1506 1505 1506 1507 1506 1506 1505
1498 1498 1498 1498 1498 1498 1497 1498 1498 1498 1499 1499 1499 1499 1499 1499 1500 1500 1501 1501 1500 1500 1500 1500 1500 1501 1500 1500 1501 1501 1500 1500 1500 1500 1500 1501 1501 1502 1503 1504 1504 1504 1503
1495 1495 1495 1495 1495 1495 1495 1495 1495 1495 1495 1496 1496 1495 1495 1495 1495 1496 1497 1497 1497 1497 1497 1497 1497 1497 1497 1497 1498 1498 1497 1497 1497 1497 1497 1498 1498 1499 1499 1500 1501 1501 1501
1492 1492 1492 1493 1493 1492 1492 1492 1492 1492 1493 1493 1493 1493 1492 1492 1491 1491 1492 1493 1493 1493 1494 1494 1493 1493 1493 1494 1494 1494 1494 1494 1494 1495 1495 1495 1496 1496 1497 1497 1497 1498 1498
1489 1490 1490 1490 1490 1490 1490 1489 1489 1490 1490 1490 1490 1490 1489 1489 1488 1487 1488 1489 1489 1490 1490 1491 1490 1490 1490 1490 1490 1490 1491 1491 1492 1492 1492 1493 1493 1493 1494 1494 1494 1493 1493
1487 1487 1487 1487 1487 1488 1487 1487 1487 1487 1487 1488 1488 1487 1487 1486 1485 1484 1484 1485 1485 1486 1486 1486 1486 1486 1486 1486 1486 1487 1487 1488 1489 1489 1489 1489 1490 1490 1490 1491 1490 1490 1490
1484 1484 1484 1484 1485 1484 1485 1485 1484 1484 1484 1485 1485 1484 1484 1483 1482 1481 1481 1481 1481 1482 1482 1482 1482 1482 1482 1482 1483 1483 1483 1484 1485 1485 1486 1486 1486 1487 1487 1487 1487 1487 1488
1482 1482 1482 1482 1482 1482 1482 1482 1482 1481 1481 1481 1481 1481 1480 1480 1479 1478 1478 1478 1478 1478 1478 1479 1479 1479 1479 1479 1479 1480 1480 1480 1481 1482 1482 1483 1483 1483 1483 1484 1484 1484 1485
1479 1479 1480 1480 1479 1479 1479 1479 1478 1478 1477 1477 1477 1477 1476 1476 1475 1475 1474 1474 1474 1474 1474 1474 1475 1475 1475 1475 1476 1476 1476 1477 1477 1478 1479 1479 1480 1480 1480 1481 1481 1482 1482
1477 1477 1477 1477 1477 1477 1477 1476 1476 1476 1475 1474 1474 1474 1473 1473 1472 1471 1471 1470 1470 1470 1470 1471 1471 1471 1472 1472 1472 1473 1473 1473 1474 1475 1476 1476 1476 1477 1477 1478 1478 1479 1479
1475 1475 1474 1474 1474 1474 1474 1474 1473 1473 1472 1472 1471 1471 1470 1470 1469 1468 1468 1467 1467 1467 1467 1467 1467 1467 1468 1468 1469 1469 1470 1470 1470 1471 1472 1473 1473 1474 1474 1475 1475 1476 1476
1472 1472 1472 1471 1471 1471 1471 1470 1470 1470 1470 1469 1469 1468 1468 1467 1466 1465 1464 1464 1464 1464 1464 1464 1464 1464 1464 1464 1465 1465 1466 1467 1467 1468 1468 1469 1470 1470 1471 1472 1472 1472 1473
1469 1469 1469 1469 1469 1468 1468 1468 1467 1467 1467 1466 1466 1466 1465 1464 1464 1463 1462 1461 1461 1461 1461 1461 1460 1460 1461 1461 1461 1462 1462 1463 1464 1464 1465 1465 1466 1467 1467 1468 1468 1469 1469
1467 1467 1466 1466 1466 1466 1466 1465 1465 1464 1464 1464 1463 1462 1461 1461 1461 1460 1460 1459 1459 1458 1458 1458 1457 1457 1457 1457 1458 1458 1459 1459 1460 1460 1461 1461 1462 1463 1463 1464 1464 1465 1466
1465 1464 1464 1464 1463 1463 1463 1463 1462 1462 1461 1461 1461 1460 1459 1459 1459 1458 1458 1457 1457 1456 1456 1455 1454 1454 1454 1454 1454 1455 1456 1456 1456 1457 1457 1458 1458 1459 1460 1460 1461 1462 1462
1462 1462 1461 1461 1460 1460 1460 1460 1459 1459 1458 1458 1458 1458 1457 1457 1456 1456 1455 1455 1454 1453 1453 1452 1451 1451 1451 1451 1451 1451 1451 1452 1453 1453 1453 1454 1455 1455 1456 1456 1457 1458 1459
1459 1459 1458 1458 1458 1457 1457 1456 1456 1456 1456 1455 1455 1455 1454 1454 1454 1453 1452 1452 1451 1450 1450 1449 1448 1448 1447 1447 1448 1448 1448 1448 1449 1449 1449 1450 1451 1451 1452 1453 1453 1454 1455
1456 1456 1455 1455 1455 1454 1454 1454 1454 1453 1453 1453 1452 1452 1452 1451 1451 1450 1450 1449 1448 1448 1447 1446 1445 1444 1444 1444 1444 1444 1444 1444 1444 1445 1445 1446 1446 1447 1448 1449 1450 1450 1451
1454 1453 1453 1453 1452 1452 1451 1451 1450 1450 1450 1450 1449 1449 1448 1448 1448 1447 1447 1446 1446 1445 1444 1443 1442 1441 1440 1440 1440 1439 1439 1439 1439 1440 1440 1441 1442 1443 1444 1445 1446 1447 1447